{"data":{"norad_id":38091,"epoch":"2026-05-25T04:01:23.155104Z","epoch_age_seconds":60728,"freshness":"FRESH","line1":"1 38091U 12008A   26145.16762911  .00000055  00000+0  00000+0 0  9991","line2":"2 38091   3.5190  69.8371 0010782 271.4876  20.4981  1.00274790 52133","mean_motion":1.0027479,"eccentricity":0.0010782,"inclination_deg":3.519,"raan_deg":69.8371,"arg_perigee_deg":271.4876,"mean_anomaly_deg":20.4981,"bstar":0,"rev_number":5213,"period_min":1436.0538675773,"perigee_km":35740.291465907,"apogee_km":35831.21367738,"semimajor_km":42163.889571644,"source":"CELESTRAK","updated_at":"2026-05-25T13:38:24.210707Z"}}